This is the latest recevied weather packets stored in our database for station/object KY4GW. If no packets are shown the sender has not sent any weather packets the latest 10 day(s).
| Time | Temp. | Humidity | Pressure | Rain* | Wind** | Luminosity | Snow |
|---|---|---|---|---|---|---|---|
| 1777157657 | 23.33° C | 50% | 1012.8 hPa | 0 mm | - | 47 W/m² | - |
| 1777157354 | 23.33° C | 51% | 1012.8 hPa | 0 mm | - | 52 W/m² | - |
| 1777157053 | 23.33° C | 51% | 1012.8 hPa | 0 mm | - | 54 W/m² | - |
| 1777156748 | 23.33° C | 50% | 1012.8 hPa | 0 mm | - | 54 W/m² | - |
| 1777156445 | 23.33° C | 48% | 1012.8 hPa | 0 mm | - | 48 W/m² | - |
| 1777156141 | 23.33° C | 49% | 1013.1 hPa | 0 mm | - | 49 W/m² | - |
| 1777155838 | 23.33° C | 49% | 1013.1 hPa | 0 mm | - | 54 W/m² | - |
| 1777155532 | 23.33° C | 49% | 1013.1 hPa | 0 mm | - | 52 W/m² | - |
| 1777155230 | 23.33° C | 49% | 1012.8 hPa | 0 mm | - | 59 W/m² | - |
| 1777154927 | 23.33° C | 51% | 1012.8 hPa | 0 mm | - | 69 W/m² | - |
| 1777154624 | 23.33° C | 52% | 1012.8 hPa | 0 mm | - | 80 W/m² | - |
| 1777154320 | 23.33° C | 52% | 1012.4 hPa | 0 mm | - | 75 W/m² | - |
| 1777154016 | 23.33° C | 51% | 1012.4 hPa | 0 mm | - | 67 W/m² | - |
| 1777153712 | 23.33° C | 53% | 1012.4 hPa | 0 mm | - | 92 W/m² | - |
| 1777153408 | 23.33° C | 54% | 1012.8 hPa | 0 mm | - | 71 W/m² | - |
| 1777153104 | 23.33° C | 53% | 1012.8 hPa | 0 mm | - | 68 W/m² | - |
| 1777152801 | 23.33° C | 52% | 1012.8 hPa | 0 mm | - | 82 W/m² | - |
| 1777152498 | 23.33° C | 52% | 1012.8 hPa | 0 mm | - | 73 W/m² | - |
| 1777152194 | 23.33° C | 53% | 1012.8 hPa | 0 mm | - | 78 W/m² | - |
| 1777151890 | 23.33° C | 52% | 1012.8 hPa | 0 mm | - | 162 W/m² | - |
| 1777151585 | 23.33° C | 55% | 1012.8 hPa | 0 mm | - | 422 W/m² | - |
| 1777151283 | 23.33° C | 54% | 1012.8 hPa | 0 mm | - | 88 W/m² | - |
| 1777150977 | 23.33° C | 53% | 1012.8 hPa | 0 mm | - | 162 W/m² | - |
| 1777150672 | 23.89° C | 52% | 1012.8 hPa | 0 mm | - | 513 W/m² | - |
| 1777150368 | 23.33° C | 51% | 1012.8 hPa | 0 mm | - | 548 W/m² | - |
* Rain latest hour (hover to see other rain measurements)
** Current wind speed in m/s (hover to see current wind gust speed)